Flag for Spain

Past Weather in 42°52'49.6"N, 8°32'46.6"W, Spain — Yesterday and Last 2 Weeks

Currently: 50 °F. Cool. (Weather station: La Coruna, Spain). See more current weather

Past Weather in 42°52'49.6"N, 8°32'46.6"W — Graph

°F

42°52'49.6"N, 8°32'46.6"W Temperature Yesterday

Maximum temperature yesterday: 59 °F (at 4:00 pm)
Minimum temperature yesterday: 50 °F (at 8:00 am)
Average temperature yesterday: 54 °F

High & Low Weather Summary for the Past Weeks

 TemperatureHumidityPressure
High72 °F (Feb 20, 2:00 pm)99% (Feb 19, 2:00 am)30.66 "Hg (Feb 19, 2:00 am)
Low46 °F (Feb 23, 10:00 am)54% (Feb 20, 2:00 pm)29.57 "Hg (Feb 25, 2:00 pm)
Average55 °F79%30.19 "Hg
* Reported Feb 14 9:00 pm — Feb 29 9:00 pm, 42°52'49.6"N, 8°32'46.6"W. Weather by CustomWeather, © 2024

Note: Actual official high and low records may vary slightly from our data, if they occured in-between our weather recording intervals... More about our weather records

42°52'49.6"N, 8°32'46.6"W Weather History for the Previous 24 Hours

Scroll right to see more
 ConditionsComfort  
Time TempWeatherWind HumidityBarometerVisibility
9:00 pm
Thu, Feb 29
50 °FCool.14 mph60%30.24 "Hg8 mi
8:00 pm51 °FCool.12 mph62%30.24 "Hg8 mi
7:00 pm51 °FPartly sunny.13 mph62%30.24 "Hg14 mi
6:00 pm52 °FCool.17 mph66%30.24 "Hg7 mi
5:00 pm52 °FCool.14 mph62%30.22 "Hg7 mi
4:00 pm52 °FPartly sunny.20 mph63%30.22 "Hg12 mi
3:00 pm53 °FCool.21 mph65%30.20 "Hg8 mi
2:00 pm53 °FCool.21 mph64%30.21 "Hg9 mi
1:00 pm51 °FOvercast.23 mph78%30.19 "Hg11 mi
12:00 pm50 °FLight rain. Cloudy.22 mph79%30.17 "Hg9 mi
11:00 am51 °FDrizzle. Cloudy.18 mph76%30.15 "Hg7 mi
10:00 am52 °FOvercast.17 mph83%30.12 "Hg6 mi
9:00 am52 °FRain. Cloudy.16 mph88%30.11 "Hg2 mi
8:00 am54 °FCool.14 mph81%30.08 "Hg12 mi
7:00 am53 °FOvercast.8 mph81%30.10 "Hg9 mi
6:00 am52 °FCool.6 mph88%30.13 "Hg9 mi
5:00 am53 °FDrizzle. Overcast.10 mph88%30.16 "Hg6 mi
4:00 am53 °FCool.10 mph87%30.19 "Hg11 mi
3:00 am53 °FCool.8 mph88%30.22 "Hg9 mi
2:00 am53 °FCool.7 mph88%30.24 "Hg9 mi
1:00 am54 °FCool.8 mph88%30.26 "Hg6 mi
12:00 am53 °FCool.8 mph90%30.28 "Hg9 mi
11:00 pm
Wed, Feb 28
54 °FCool.6 mph93%30.29 "Hg7 mi
10:00 pm54 °FRain. Overcast.10 mph93%30.31 "Hg1 mi
Weather by CustomWeather, © 2024

See weather overview